This is the latest recevied weather packets stored in our database for station/object KG7FOQ-13. If no packets are shown the sender has not sent any weather packets the latest 10 day(s).
| Time | Temp. | Humidity | Pressure | Rain* | Wind** | Luminosity | Snow |
|---|---|---|---|---|---|---|---|
| 1787942849 | 24.44° C | 43% | 1017.7 hPa | 0 mm | - | - | - |
| 1787942548 | 24.44° C | 44% | 1017.7 hPa | 0 mm | - | - | - |
| 1787942248 | 24.44° C | 47% | 1017.9 hPa | 0 mm | - | - | - |
| 1787941947 | 24.44° C | 44% | 1017.9 hPa | 0 mm | - | - | - |
| 1787941812 | 24.44° C | 44% | 1018.1 hPa | 0 mm | - | - | - |
| 1787941647 | 24.44° C | 44% | 1018.1 hPa | 0 mm | - | - | - |
| 1787941346 | 25° C | 49% | 1018.1 hPa | 0 mm | - | - | - |
| 1787941046 | 24.44° C | 44% | 1018.1 hPa | 0 mm | - | - | - |
| 1787940745 | 24.44° C | 43% | 1018.2 hPa | 0 mm | - | - | - |
| 1787940445 | 23.89° C | 46% | 1018.4 hPa | 0 mm | - | - | - |
| 1787940144 | 23.33° C | 49% | 1018.5 hPa | 0 mm | - | - | - |
| 1787939844 | 23.33° C | 54% | 1018.7 hPa | 0 mm | - | - | - |
| 1787939543 | 22.78° C | 53% | 1018.6 hPa | 0 mm | - | - | - |
| 1787939243 | 22.78° C | 54% | 1018.6 hPa | 0 mm | - | - | - |
| 1787938942 | 22.78° C | 54% | 1018.6 hPa | 0 mm | - | - | - |
| 1787938642 | 22.22° C | 55% | 1018.5 hPa | 0 mm | - | - | - |
| 1787938341 | 22.22° C | 54% | 1018.5 hPa | 0 mm | - | - | - |
| 1787938041 | 22.22° C | 55% | 1018.6 hPa | 0 mm | - | - | - |
| 1787937740 | 22.22° C | 54% | 1018.7 hPa | 0 mm | - | - | - |
| 1787937440 | 22.22° C | 53% | 1018.7 hPa | 0 mm | - | - | - |
| 1787937139 | 21.67° C | 55% | 1018.8 hPa | 0 mm | - | - | - |
| 1787936839 | 21.67° C | 58% | 1018.7 hPa | 0 mm | - | - | - |
| 1787936592 | 21.11° C | 60% | 1018.7 hPa | 0 mm | - | - | - |
| 1787936538 | 21.11° C | 60% | 1018.7 hPa | 0 mm | - | - | - |
| 1787936238 | 21.11° C | 61% | 1018.6 hPa | 0 mm | - | - | - |
* Rain latest hour (hover to see other rain measurements)
** Current wind speed in m/s (hover to see current wind gust speed)